TimeEST,TemperatureF,Dew PointF,Humidity,Sea Level PressureIn,VisibilityMPH,Wind Direction,Wind SpeedMPH,Gust SpeedMPH,PrecipitationIn,Events,Conditions,WindDirDegrees,DateUTC
12:50 AM,37.4,33.8,87,29.75,3.0,Variable,3.5,-,N/A,,Overcast,0,2012-12-19 05:50:00
12:53 AM,37.0,34.0,89,29.77,3.0,North,4.6,-,N/A,,Overcast,10,2012-12-19 05:53:00
1:12 AM,37.4,33.8,87,29.77,3.0,Calm,Calm,-,N/A,,Overcast,0,2012-12-19 06:12:00
1:53 AM,37.0,34.0,89,29.81,3.0,Variable,3.5,-,N/A,,Overcast,0,2012-12-19 06:53:00
2:53 AM,36.0,33.1,89,29.85,4.0,Calm,Calm,-,N/A,,Overcast,0,2012-12-19 07:53:00
3:39 AM,35.6,33.8,93,29.87,3.0,WNW,4.6,-,N/A,,Overcast,300,2012-12-19 08:39:00
3:49 AM,35.6,33.8,93,29.86,2.5,NNW,3.5,-,N/A,,Overcast,330,2012-12-19 08:49:00
3:53 AM,36.0,33.1,89,29.88,3.0,NNW,3.5,-,N/A,,Overcast,330,2012-12-19 08:53:00
4:33 AM,37.4,32.0,81,29.88,7.0,North,3.5,-,N/A,,Mostly Cloudy,350,2012-12-19 09:33:00
4:53 AM,36.0,32.0,86,29.91,6.0,Calm,Calm,-,N/A,,Partly Cloudy,0,2012-12-19 09:53:00
5:53 AM,33.1,28.9,85,29.92,4.0,Calm,Calm,-,N/A,,Clear,0,2012-12-19 10:53:00
6:31 AM,33.8,30.2,87,29.91,2.5,Calm,Calm,-,N/A,,Overcast,0,2012-12-19 11:31:00
6:39 AM,33.8,30.2,87,29.91,3.0,Calm,Calm,-,N/A,,Overcast,0,2012-12-19 11:39:00
6:53 AM,33.1,30.0,89,29.94,3.0,Calm,Calm,-,N/A,,Overcast,0,2012-12-19 11:53:00
7:53 AM,34.0,30.9,89,29.98,3.0,South,3.5,-,N/A,,Overcast,180,2012-12-19 12:53:00
8:53 AM,36.0,32.0,86,30.01,3.0,Calm,Calm,-,N/A,,Overcast,0,2012-12-19 13:53:00
9:53 AM,37.0,33.1,86,30.04,3.0,Calm,Calm,-,N/A,,Overcast,0,2012-12-19 14:53:00
10:53 AM,39.0,32.0,76,30.06,10.0,WNW,5.8,-,N/A,,Overcast,300,2012-12-19 15:53:00
11:53 AM,39.0,32.0,76,30.07,10.0,WNW,6.9,-,N/A,,Overcast,290,2012-12-19 16:53:00
12:53 PM,39.9,32.0,73,30.06,10.0,WNW,4.6,-,N/A,,Overcast,290,2012-12-19 17:53:00
1:53 PM,39.9,32.0,73,30.06,10.0,North,3.5,-,N/A,,Overcast,350,2012-12-19 18:53:00
2:53 PM,41.0,30.9,67,30.06,10.0,Calm,Calm,-,N/A,,Overcast,0,2012-12-19 19:53:00
3:53 PM,39.9,32.0,73,30.08,10.0,Calm,Calm,-,N/A,,Overcast,0,2012-12-19 20:53:00
4:53 PM,41.0,30.9,67,30.08,10.0,Calm,Calm,-,N/A,,Overcast,0,2012-12-19 21:53:00
5:53 PM,39.0,30.9,73,30.09,10.0,Calm,Calm,-,N/A,,Mostly Cloudy,0,2012-12-19 22:53:00
6:03 PM,39.2,30.2,70,30.07,10.0,Calm,Calm,-,N/A,,Mostly Cloudy,0,2012-12-19 23:03:00
6:53 PM,37.9,30.9,76,30.11,10.0,Calm,Calm,-,N/A,,Scattered Clouds,0,2012-12-19 23:53:00
7:53 PM,37.9,30.9,76,30.09,10.0,Calm,Calm,-,N/A,,Partly Cloudy,0,2012-12-20 00:53:00
8:16 PM,37.4,32.0,81,30.07,9.0,East,4.6,-,N/A,,Mostly Cloudy,90,2012-12-20 01:16:00
8:42 PM,37.4,32.0,81,30.07,9.0,East,4.6,-,N/A,,Overcast,80,2012-12-20 01:42:00
8:53 PM,37.0,32.0,82,30.09,8.0,East,4.6,-,N/A,,Overcast,90,2012-12-20 01:53:00
9:31 PM,37.4,33.8,87,30.05,7.0,East,4.6,-,N/A,,Overcast,90,2012-12-20 02:31:00
9:44 PM,37.4,33.8,87,30.05,7.0,East,5.8,-,N/A,,Overcast,90,2012-12-20 02:44:00
9:53 PM,37.9,33.1,83,30.06,7.0,ENE,6.9,-,N/A,,Overcast,70,2012-12-20 02:53:00
10:53 PM,39.0,33.1,79,30.04,7.0,East,9.2,-,N/A,,Overcast,80,2012-12-20 03:53:00
11:53 PM,39.0,33.1,79,30.00,8.0,East,10.4,-,N/A,,Overcast,90,2012-12-20 04:53:00